Regional Weather Roundup
Issued by NWS New Orleans/Baton Rouge, LA

Home | Current Version | Previous Version | Text Only | Print | Product List | Glossary Off
Versions: 1 2 3 4 5 6 7 8 9 10 11 12 13 14 15 16 17 18 19 20 21 22 23 24 25 26 27 28 29 30 31 32 33 34 35 36 37 38 39 40 41 42 43 44 45 46 47 48 49 50

603
ASUS44 KLIX 190507
RWRLIX
NEW ORLEANS REGIONAL WEATHER ROUNDUP
NATIONAL WEATHER SERVICE NEW ORLEANS LA
1200 AM CDT SUN APR 19 2015

NOTE: "FAIR" INDICATES FEW OR NO CLOUDS BELOW 12,000 FEET WITH NO
      SIGNIFICANT WEATHER AND/OR OBSTRUCTIONS TO VISIBILITY.
      SKY/WX - SKY CONDITION AND SIGNIFICANT WEATHER.
      TMP - AIR TEMPERATURE.     DP    - DEWPOINT TEMPERATURE.
      RH  - RELATIVE HUMIDITY.   PRES  - PRESSURE.
      HI  - HEAT INDEX.          WCI   - WIND CHILL INDEX.

*  THESE STATIONS ARE NOT NWS OR FAA STATIONS AND ARE NOT UNDER
   NWS QUALITY CONTROL.

LAZ038-040-048-061>063-065>067-069-190600-
SOUTHEAST LOUISIANA

CITY           SKY/WX    TMP DP  RH WIND       PRES   REMARKS
N.O. AUDUBON     N/A     73  70  92 MISG        N/A
N.O. INTL ARPT MOCLDY    71  67  87 S8        29.80S
N.O. LAKEFRONT PTCLDY    73  68  84 S10       29.80S
SLIDELL        PTCLDY    71  70  96 S10       29.79S
BATON ROUGE    PTCLDY    70  69  97 S6        29.80S
BOOTHVILLE     CLOUDY    70  68  93 SE9       29.80F
BELLE CHASSE   MOCLDY    71  67  87 SE14G21   29.79R
BOGALUSA*        N/A     73  67  83 SW10      29.82R
GALLIANO*      PTCLDY    69  68  96 SE5       29.80F
NEW ROADS*     MOCLDY    71  69  95 S3        29.79F
GONZALES*      CLOUDY    72  72 100 S8        29.81S
HAMMOND*       CLOUDY    72  68  88 S5        29.82S
HOUMA*         PTCLDY    71  69  92 SE9       29.81R
PORT FOURCHON* NOT AVBL

$$

MSZ070-080>082-190600-
SOUTHERN MISSISSIPPI

CITY           SKY/WX    TMP DP  RH WIND       PRES   REMARKS
MCCOMB         CLOUDY    70  69  97 SW6       29.80R
GULFPORT       CLOUDY    73  67  81 S12G21    29.79F
BILOXI         CLOUDY    73  70  89 S10       29.79F
PASCAGOULA     CLOUDY    72  67  84 S7        29.81F

$$

COASTAL OBSERVATIONS
LAKE AND NEARSHORE STATIONS

STATION/POSITION TIME  TEMP    WIND        PRES    WAVE
                       AIR SEA DIR/SP/G            HT/PER
                 (UTC) (F)     (DEG/KT/KT) (MB)    (FT/S)
PASCAGOULA       0400   74     170/ 10/ 16 1009.9
WAVELAND YACHT   0400   73 73  170/ 18/ 20 1008.8
GRAND ISLE       0400   72 76  140/ 16/ 21 1008.9
SOUTHWEST PASS   0400   71 63  140/ 16/ 18 1010.2
NEW CANAL        0400   71     160/  5/ 10 1009.3
SHELL BEACH      0400   72 75  140/ 16/ 19 1008.5

OFFSHORE STATIONS

STATION/POSITION TIME  TEMP    WIND        PRES    WAVE
                       AIR SEA DIR/SP/G            HT/PER
                 (UTC) (F)     (DEG/KT/KT) (MB)    (FT/S)
64 S DAUPHIN ISL 0450   73 74  140/ 23/ 25 1009.8    2/ 5

$$




USA.gov is the U.S. government's official web portal to all federal, state and local government web resources and services.